| time (UTC) | temp F | wind direction | speed knots | gust knots | rain 1hr in | rain 24hr in | rain mn in | humidity % | barometer mb |
| 20260506112343 | 63 | 153 | 0.0 | 0.0 | 0.00 | 0.00 | 0.00 | ||
| 20260506110943 | 63 | 153 | 0.0 | 0.0 | 0.00 | 0.00 | 0.00 | ||
| 20260506110848 | 63 | 153 | 0.0 | 0.0 | 0.00 | 0.00 | 0.00 | ||
| 20260506105536 | 0 | 146 | 738.6 | 0.0 | 0.00 | 0.00 | 0.00 | ||
| 20260506105502 | 0 | 146 | 738.6 | 0.0 | 0.00 | 0.00 | 0.00 | ||
| 20260506105354 | 0 | 146 | 738.6 | 0.0 | 0.00 | 0.00 | 0.00 | ||
| 20260506105350 | 64 | 153 | 0.0 | 0.0 | 0.00 | 0.00 | 0.00 | ||
| 20260506103855 | 64 | 166 | 0.9 | 0.0 | 0.00 | 0.00 | 0.00 | ||
| 20260506102401 | 63 | 165 | 0.0 | 0.0 | 0.00 | 0.00 | 0.00 | ||
| 20260506100906 | 0 | 146 | 738.6 | 0.0 | 0.00 | 0.00 | 0.00 | ||
| 20260506100902 | 63 | 159 | 0.0 | 0.0 | 0.00 | 0.00 | 0.00 | ||
| 20260506095443 | 64 | 139 | 0.0 | 0.0 | 0.00 | 0.00 | 0.00 | ||
| 20260506095408 | 64 | 139 | 0.0 | 0.0 | 0.00 | 0.00 | 0.00 | ||
| 20260506093955 | 63 | 122 | 0.0 | 0.0 | 0.00 | 0.00 | 0.00 | ||
| 20260506093913 | 63 | 122 | 0.0 | 0.0 | 0.00 | 0.00 | 0.00 | ||
| 20260506092418 | 0 | 146 | 738.6 | 0.0 | 0.00 | 0.00 | 0.00 | ||
| 20260506092415 | 62 | 153 | 0.0 | 0.0 | 0.00 | 0.00 | 0.00 | ||
| 20260506090920 | 63 | 141 | 0.0 | 0.0 | 0.00 | 0.00 | 0.00 | ||
| 20260506085425 | 62 | 83 | 0.0 | 0.0 | 0.00 | 0.00 | 0.00 | ||
| 20260506083930 | 0 | 146 | 738.6 | 0.0 | 0.00 | 0.00 | 0.00 | ||
| 20260506083927 | 62 | 83 | 0.0 | 0.0 | 0.00 | 0.00 | 0.00 | ||
| 20260506082432 | 62 | 83 | 0.0 | 0.0 | 0.00 | 0.00 | 0.00 | ||
| 20260506080937 | 62 | 136 | 0.0 | 0.0 | 0.00 | 0.00 | 0.00 | ||
| 20260506072450 | 63 | 136 | 0.0 | 0.0 | 0.00 | 0.00 | 0.00 | ||
| 20260506070955 | 0 | 146 | 738.6 | 0.0 | 0.00 | 0.00 | 0.00 | ||
| 20260506070951 | 66 | 136 | 0.0 | 0.0 | 0.00 | 0.00 | 0.00 | ||
| 20260506062507 | 0 | 146 | 738.6 | 0.0 | 0.00 | 0.00 | 0.00 | ||
| 20260506062504 | 67 | 245 | 1.7 | 0.9 | 0.00 | 0.00 | 0.00 | ||
| 20260506061009 | 68 | 195 | 2.6 | 3.5 | 0.00 | 0.00 | 0.00 | ||
| 20260506051027 | 68 | 231 | 2.6 | 4.3 | 0.00 | 0.00 | 0.00 | ||
| 20260506044034 | 66 | 158 | 0.0 | 0.0 | 0.00 | 0.00 | 0.00 | ||
| 20260506042539 | 67 | 155 | 0.0 | 0.0 | 0.00 | 0.00 | 0.00 | ||
| 20260506041044 | 0 | 146 | 738.6 | 0.0 | 0.00 | 0.00 | 0.00 | ||
| 20260506041041 | 67 | 158 | 0.0 | 0.0 | 0.00 | 0.00 | 0.00 | ||
| 20260506035546 | 66 | 104 | 0.0 | 0.0 | 0.00 | 0.00 | 0.00 | ||
| 20260506034051 | 65 | 104 | 0.0 | 0.0 | 0.00 | 0.00 | 0.00 | ||
| 20260506032557 | 0 | 146 | 738.6 | 0.0 | 0.00 | 0.00 | 0.00 | ||
| 20260506032553 | 65 | 143 | 0.0 | 0.0 | 0.00 | 0.00 | 0.00 | ||
| 20260506031058 | 65 | 143 | 0.0 | 0.0 | 0.00 | 0.00 | 0.00 | ||
| 20260506025604 | 66 | 143 | 0.0 | 0.0 | 0.00 | 0.00 | 0.00 | ||
| 20260506024109 | 0 | 146 | 738.6 | 0.0 | 0.00 | 0.00 | 0.00 | ||
| 20260506024106 | 67 | 143 | 0.0 | 0.0 | 0.00 | 0.00 | 0.00 | ||
| 20260506022611 | 69 | 143 | 0.0 | 0.0 | 0.00 | 0.00 | 0.00 | ||
| 20260506021116 | 70 | 143 | 0.0 | 0.0 | 0.00 | 0.00 | 0.00 | ||
| 20260506015622 | 0 | 146 | 738.6 | 0.0 | 0.00 | 0.00 | 0.00 | ||
| 20260506015618 | 71 | 150 | 0.0 | 0.0 | 0.00 | 0.00 | 0.00 | ||
| 20260506014123 | 72 | 169 | 1.7 | 0.9 | 0.00 | 0.00 | 0.00 | ||
| 20260506012629 | 72 | 179 | 0.0 | 0.0 | 0.00 | 0.00 | 0.00 | ||
| 20260506011134 | 0 | 146 | 738.6 | 0.0 | 0.00 | 0.00 | 0.00 | ||
| 20260506011130 | 72 | 173 | 0.0 | 0.0 | 0.00 | 0.00 | 0.00 | ||
| 20260506005636 | 73 | 190 | 0.0 | 0.0 | 0.00 | 0.00 | 0.00 | ||
| 20260506004141 | 74 | 224 | 1.7 | 1.7 | 0.00 | 0.00 | 0.00 | ||
| 20260506002647 | 0 | 146 | 738.6 | 0.0 | 0.00 | 0.00 | 0.00 | ||
| 20260506002643 | 75 | 180 | 0.0 | 0.0 | 0.00 | 0.00 | 0.00 | ||
| 20260506001148 | 76 | 188 | 0.9 | 1.7 | 0.00 | 0.00 | 0.00 | ||
| 20260505235654 | 77 | 176 | 3.5 | 1.7 | 0.00 | 0.00 | 0.00 | ||
| 20260505234159 | 0 | 146 | 738.6 | 0.0 | 0.00 | 0.00 | 0.00 | ||
| 20260505234155 | 78 | 201 | 1.7 | 1.7 | 0.00 | 0.00 | 0.00 | ||
| 20260505232701 | 79 | 207 | 4.3 | 9.6 | 0.00 | 0.00 | 0.00 | ||
| 20260505231206 | 79 | 240 | 1.7 | 3.5 | 0.00 | 0.00 | 0.00 | ||
| 20260505225711 | 0 | 146 | 738.6 | 0.0 | 0.00 | 0.00 | 0.00 | ||
| 20260505225708 | 80 | 152 | 3.5 | 6.1 | 0.00 | 0.00 | 0.00 | ||
| 20260505224213 | 80 | 252 | 4.3 | 3.5 | 0.00 | 0.00 | 0.00 | ||
| 20260505222719 | 80 | 86 | 3.5 | 3.5 | 0.00 | 0.00 | 0.00 | ||
| 20260505221224 | 0 | 146 | 738.6 | 0.0 | 0.00 | 0.00 | 0.00 | ||
| 20260505221220 | 80 | 124 | 3.5 | 0.9 | 0.00 | 0.00 | 0.00 | ||
| 20260505215726 | 80 | 194 | 3.5 | 5.2 | 0.00 | 0.00 | 0.00 | ||
| 20260505214231 | 80 | 146 | 2.6 | 4.3 | 0.00 | 0.00 | 0.00 | ||
| 20260505212737 | 0 | 146 | 738.6 | 0.0 | 0.00 | 0.00 | 0.00 | ||
| 20260505212733 | 80 | 142 | 3.5 | 2.6 | 0.00 | 0.00 | 0.00 | ||
| 20260505211238 | 80 | 173 | 5.2 | 2.6 | 0.00 | 0.00 | 0.00 | ||
| 20260505205744 | 80 | 176 | 4.3 | 0.9 | 0.00 | 0.00 | 0.00 | ||
| 20260505204249 | 0 | 146 | 738.6 | 0.0 | 0.00 | 0.00 | 0.00 | ||
| 20260505204245 | 80 | 242 | 4.3 | 3.5 | 0.00 | 0.00 | 0.00 | ||
| 20260505202751 | 80 | 187 | 3.5 | 1.7 | 0.00 | 0.00 | 0.00 | ||
| 20260505201256 | 81 | 174 | 4.3 | 5.2 | 0.00 | 0.00 | 0.00 | ||
| 20260505195802 | 0 | 146 | 738.6 | 0.0 | 0.00 | 0.00 | 0.00 | ||
| 20260505195758 | 80 | 170 | 5.2 | 3.5 | 0.00 | 0.00 | 0.00 | ||
| 20260505194303 | 80 | 195 | 4.3 | 1.7 | 0.00 | 0.00 | 0.00 | ||
| 20260505192809 | 80 | 142 | 5.2 | 3.5 | 0.00 | 0.00 | 0.00 | ||
| 20260505191314 | 0 | 146 | 738.6 | 0.0 | 0.00 | 0.00 | 0.00 | ||
| 20260505191310 | 79 | 197 | 5.2 | 5.2 | 0.00 | 0.00 | 0.00 | ||
| 20260505185816 | 79 | 173 | 3.5 | 2.6 | 0.00 | 0.00 | 0.00 | ||
| 20260505184321 | 79 | 86 | 2.6 | 1.7 | 0.00 | 0.00 | 0.00 | ||
| 20260505182827 | 0 | 146 | 738.6 | 0.0 | 0.00 | 0.00 | 0.00 | ||
| 20260505182823 | 79 | 186 | 3.5 | 4.3 | 0.00 | 0.00 | 0.00 | ||
| 20260505181328 | 79 | 148 | 3.5 | 2.6 | 0.00 | 0.00 | 0.00 | ||
| 20260505175834 | 79 | 176 | 5.2 | 3.5 | 0.00 | 0.00 | 0.00 | ||
| 20260505174339 | 0 | 146 | 738.6 | 0.0 | 0.00 | 0.00 | 0.00 | ||
| 20260505174336 | 78 | 269 | 5.2 | 3.5 | 0.00 | 0.00 | 0.00 | ||
| 20260505172841 | 77 | 184 | 2.6 | 2.6 | 0.00 | 0.00 | 0.00 | ||
| 20260505171346 | 78 | 104 | 5.2 | 5.2 | 0.00 | 0.00 | 0.00 | ||
| 20260505165852 | 0 | 146 | 738.6 | 0.0 | 0.00 | 0.00 | 0.00 | ||
| 20260505165848 | 77 | 114 | 6.1 | 9.6 | 0.00 | 0.00 | 0.00 | ||
| 20260505164353 | 76 | 200 | 2.6 | 1.7 | 0.00 | 0.00 | 0.00 | ||
| 20260505162859 | 76 | 167 | 2.6 | 2.6 | 0.00 | 0.00 | 0.00 | ||
| 20260505161404 | 0 | 146 | 738.6 | 0.0 | 0.00 | 0.00 | 0.00 | ||
| 20260505161400 | 76 | 166 | 0.9 | 1.7 | 0.00 | 0.00 | 0.00 | ||
| 20260505152916 | 0 | 146 | 738.6 | 0.0 | 0.00 | 0.00 | 0.00 | ||
| 20260505152913 | 73 | 193 | 4.3 | 5.2 | 0.00 | 0.00 | 0.00 | ||
| 20260505151418 | 72 | 172 | 2.6 | 1.7 | 0.00 | 0.00 | 0.00 | ||
| 20260505124500 | 62 | 180 | 3.5 | 2.6 | 0.00 | 0.00 | 0.00 | ||
| 20260505123005 | 0 | 146 | 738.6 | 0.0 | 0.00 | 0.00 | 0.00 | ||
| 20260505123001 | 61 | 214 | 1.7 | 5.2 | 0.00 | 0.00 | 0.00 | ||
| 20260505121507 | 60 | 91 | 0.0 | 0.0 | 0.00 | 0.00 | 0.00 | ||
| 20260505120012 | 59 | 173 | 0.9 | 1.7 | 0.00 | 0.00 | 0.00 | ||
| 20260505114517 | 0 | 146 | 738.6 | 0.0 | 0.00 | 0.00 | 0.00 | ||
| 20260505114513 | 58 | 219 | 1.7 | 3.5 | 0.00 | 0.00 | 0.00 | ||
| 20260505113018 | 57 | 163 | 0.9 | 0.0 | 0.00 | 0.00 | 0.00 |